CW8809 Weather Reports


time (UTC)temp
C
wind
direction
speed
KPH
gust
KPH
rain 1hr
cm
rain 24hr
cm
rain mn
cm
humidity
%
barometer
mb
20260503190033 13 270 0.0 0.0 0.10 0.79 0.46 63 1017.7
20260503185030 13 337 0.0 0.0 0.05 0.74 0.41 64 1018.1
20260503183956 13 292 0.0 0.0 0.10 0.66 0.36 64 1018.2
20260503182922 13 315 0.0 0.0 0.10 0.66 0.36 64 1018.2
20260503181921 13 270 0.0 0.0 0.10 0.66 0.36 64 1018.6
20260503180918 13 337 0.0 0.0 0.10 0.66 0.36 64 1018.6
20260503175916 13 292 0.0 0.0 0.10 0.66 0.36 64 1018.6
20260503174913 13 292 0.0 0.0 0.10 0.66 0.36 63 1018.6
20260503173809 13 292 0.0 0.0 0.10 0.66 0.36 63 1018.6
20260503172734 13 337 0.0 0.0 0.10 0.66 0.36 63 1018.3
20260503171700 13 337 0.0 0.0 0.10 0.61 0.30 62 1018.6
20260503170657 13 337 0.0 0.0 0.10 0.61 0.30 63 1019.0
20260503150501 13 315 0.0 0.0 0.10 0.41 0.10 66 1019.4
20260503131406 14 337 0.0 0.0 0.05 0.30 0.33 76 1020.3
20260503130404 14 315 0.0 0.0 0.05 0.30 0.33 76 1020.2
20260503110308 14 292 0.0 0.0 0.10 0.25 0.28 71 1020.1
20260503100225 14 292 0.0 0.0 0.15 0.25 0.28 75 1019.4
20260503090108 15 337 0.0 0.0 0.15 0.15 0.15 79 1020.0
20260503081057 15 225 0.0 0.0 0.00 0.00 0.00 82 1020.1
20260503072047 16 270 0.0 0.0 0.00 0.00 0.00 80 1019.8
20260503071045 16 225 0.0 0.0 0.00 0.00 0.00 80 1019.9
20260503054923 18 247 0.0 0.0 0.00 0.00 0.00 71 1020.2
20260503053921 18 247 0.0 0.0 0.00 0.00 0.00 71 1020.2
20260503052919 18 180 0.0 0.0 0.00 0.00 0.00 70 1020.2
20260503051917 18 180 0.0 0.0 0.00 0.00 0.00 71 1020.3
20260503050915 18 180 0.0 0.0 0.00 0.00 0.00 70 1020.4
20260503045913 18 247 0.0 0.0 0.00 0.00 0.00 69 1020.4
20260503044912 18 202 0.0 0.0 0.00 0.00 0.00 70 1020.4
20260503043910 18 247 0.0 0.0 0.00 0.00 0.00 68 1020.0
20260503042908 18 292 0.0 0.0 0.00 0.00 0.00 66 1020.1
20260503041906 18 202 0.0 0.0 0.00 0.00 0.00 65 1019.8
20260503040904 19 292 0.0 0.0 0.00 0.00 0.00 64 1019.8
20260503035902 19 315 0.0 0.0 0.00 0.00 0.00 63 1019.8
20260503034900 20 315 0.0 0.0 0.00 0.00 0.00 60 1019.8
20260503033857 20 315 0.0 0.0 0.00 0.00 0.00 61 1020.0
20260503032856 20 45 0.0 0.0 0.00 0.00 0.00 62 1019.9
20260503031822 19 292 0.0 0.0 0.00 0.00 0.00 65 1019.8
20260503030819 18 180 0.0 0.0 0.00 0.00 0.00 68 1019.8
20260503025817 18 247 0.0 0.0 0.00 0.00 0.00 71 1020.0
20260503024815 18 202 0.0 0.0 0.00 0.00 0.00 70 1020.0
20260503023814 18 292 0.0 0.0 0.00 0.00 0.00 71 1020.4
20260503022812 18 45 0.0 0.0 0.00 0.00 0.00 70 1020.7
20260503021809 17 135 0.0 0.0 0.00 0.00 0.00 72 1021.0
20260503020807 17 225 0.0 0.0 0.00 0.00 0.00 73 1021.7
20260503015733 17 157 0.0 0.0 0.00 0.00 0.00 74 1022.0
20260503014731 17 225 0.0 0.0 0.00 0.00 0.00 74 1022.0
20260503013729 17 292 0.0 0.0 0.00 0.00 0.00 75 1022.0
20260503012727 16 135 0.0 0.0 0.00 0.00 0.00 76 1022.3
20260503011653 16 135 0.0 0.0 0.00 0.00 0.00 77 1022.6
20260503010650 16 180 0.0 0.0 0.00 0.00 0.00 78 1022.6
20260503005648 16 180 0.0 0.0 0.00 0.00 0.00 80 1022.6
20260503004646 15 157 0.0 0.0 0.00 0.00 0.00 80 1022.5
20260503003643 15 202 0.0 0.0 0.00 0.00 0.00 80 1022.9
20260503002641 15 157 0.0 0.0 0.00 0.00 0.00 81 1022.8
20260503001639 14 135 0.0 0.0 0.00 0.00 0.00 82 1022.8
20260503000605 14 180 0.0 0.0 0.00 0.00 0.00 82 1023.1
20260502235532 13 135 0.0 0.0 0.00 0.00 0.00 83 1023.1
20260502234530 13 22 0.0 0.0 0.00 0.00 0.00 83 1023.1
20260502233529 13 157 0.0 0.0 0.00 0.00 0.00 83 1023.1
20260502232528 13 90 0.0 0.0 0.00 0.00 0.00 83 1023.1
20260502231525 13 157 0.0 0.0 0.00 0.00 0.00 82 1023.3
20260502230524 13 135 0.0 0.0 0.00 0.00 0.00 82 1023.3
20260502225522 12 202 0.0 0.0 0.00 0.00 0.00 82 1023.3
20260502224521 12 270 0.0 0.0 0.00 0.00 0.00 82 1023.0
20260502223519 12 247 0.0 0.0 0.00 0.00 0.00 81 1023.0
20260502222516 12 180 0.0 0.0 0.00 0.00 0.00 80 1023.0
20260502221514 12 157 0.0 0.0 0.00 0.00 0.00 79 1023.0
20260502220512 12 157 0.0 0.0 0.00 0.00 0.00 78 1022.9
20260502215438 11 67 0.0 0.0 0.00 0.00 0.00 79 1022.6
20260502214404 11 22 0.0 0.0 0.00 0.00 0.00 78 1022.5
20260502213402 11 0 0.0 0.0 0.00 0.00 0.00 78 1022.5
20260502212359 11 247 0.0 0.0 0.00 0.00 0.00 79 1022.2
20260502211358 11 247 0.0 0.0 0.00 0.00 0.00 79 1022.5
20260502210355 11 247 0.0 0.0 0.00 0.00 0.00 79 1022.5
20260502205353 10 22 0.0 0.0 0.00 0.00 0.00 80 1022.2
20260502204351 10 22 0.0 0.0 0.00 0.00 0.00 80 1021.8
20260502203349 11 22 0.0 0.0 0.00 0.00 0.00 80 1021.9
20260502202347 11 22 0.0 0.0 0.00 0.00 0.00 80 1021.9
20260502201344 11 0 0.0 0.0 0.00 0.00 0.00 80 1021.9
20260502200342 11 0 0.0 0.0 0.00 0.00 0.00 80 1021.9
20260502195341 11 22 0.0 0.0 0.00 0.00 0.00 79 1021.9
20260502194235 10 0 0.0 0.0 0.00 0.00 0.00 80 1021.5
20260502193232 10 22 0.0 0.0 0.00 0.00 0.00 81 1021.5
20260502192229 10 22 0.0 0.0 0.00 0.00 0.00 82 1021.5
20260502191227 10 22 0.0 0.0 0.00 0.00 0.00 82 1021.6